Weather History for New Richmond, WI

Change the Weather History Date:

Monday, January 21, 2013

  Actual Average (KMSP) Record (KMSP)
Temperature  
Mean Temperature -8 °F 15 °F  
Max Temperature -2 °F 24 °F 48 °F (1900)
Min Temperature -13 °F 7 °F -41 °F (1888)
Degree Days  
Heating Degree Days 72 50  
Month to date heating degree days 1044  
Since 1 July heating degree days 4067  
Cooling Degree Days 0 0  
Month to date cooling degree days 0  
Year to date cooling degree days 0  
Moisture  
Dew Point -17 °F    
Average Humidity 65    
Maximum Humidity 71    
Minimum Humidity 55    
Precipitation  
Precipitation 0.00 in 0.03 in 0.81 in (1917)
Month to date precipitation 0.63  
Year to date precipitation 0.63  
Snow  
Snow 0.00 in 0.40 in 15.80 in (1917)
Month to date snowfall 8.4  
Since 1 July snowfall 30.2  
Snow Depth -    
Sea Level Pressure  
Sea Level Pressure 30.25 in    
Wind  
Wind Speed 13 mph (WNW)    
Max Wind Speed 20 mph    
Max Gust Speed 25 mph    
Visibility 10 miles    
Events      
T = Trace of Precipitation, MM = Missing Value Source: NWS Daily Summary

Daily Weather History Graph

Daily Weather History Graph

Search for Another Location

Airport:

Trip Planner

Search our weather history database for the weather conditions in past years. The results will help you decide how hot, cold, wet, or windy it might be!

Date:

Astronomy

Jan. 21, 2013 Rise Set
Actual Time 7:40 AM CST 5:02 PM CST
Civil Twilight 7:08 AM CST 5:34 PM CST
Nautical Twilight 6:32 AM CST 6:10 PM CST
Astronomical Twilight 5:57 AM CST 6:45 PM CST
Moon 12:41 PM CST (1/21) 3:10 AM CST (1/21)
Length of Visible Light 10h 26m
Length of Day
9h 21m
Waxing Gibbous, 75% of the Moon is Illuminated
Jan 21
Waxing Gibbous
Jan 26
Full
Feb 3
Last Quarter
Feb 10
New
Feb 17
First Quarter

Hourly Weather History & Observations

Time (CST) Temp. Windchill Dew Point Humidity Pressure Visibility Wind Dir Wind Speed Gust Speed Precip Events Conditions
12:15 AM -2.2 °F -19.9 °F -11.2 °F 66% 30.22 in 10.0 mi WNW 11.5 mph - N/A   Scattered Clouds
12:35 AM -4.0 °F -21.2 °F -13.0 °F 65% 30.22 in 10.0 mi WNW 10.4 mph - N/A   Clear
12:55 AM -4.0 °F -24.5 °F -13.0 °F 65% 30.21 in 10.0 mi NW 15.0 mph - N/A   Clear
1:15 AM -4.0 °F -23.0 °F -13.0 °F 65% 30.21 in 10.0 mi WNW 12.7 mph - N/A   Clear
1:35 AM -5.8 °F -24.4 °F -13.0 °F 71% 30.22 in 10.0 mi WNW 11.5 mph - N/A   Clear
1:55 AM -5.8 °F -26.0 °F -14.8 °F 65% 30.22 in 10.0 mi WNW 13.8 mph - N/A   Clear
2:15 AM -5.8 °F -25.2 °F -14.8 °F 65% 30.23 in 10.0 mi NW 12.7 mph 21.9 mph N/A   Clear
2:35 AM -5.8 °F -26.0 °F -14.8 °F 65% 30.23 in 10.0 mi NW 13.8 mph - N/A   Scattered Clouds
2:55 AM -5.8 °F -25.2 °F -14.8 °F 65% 30.23 in 10.0 mi WNW 12.7 mph 16.1 mph N/A   Clear
3:15 AM -5.8 °F -26.0 °F -14.8 °F 65% 30.23 in 10.0 mi WNW 13.8 mph - N/A   Scattered Clouds
3:35 AM -5.8 °F -23.4 °F -14.8 °F 65% 30.23 in 10.0 mi WNW 10.4 mph - N/A   Scattered Clouds
3:55 AM -7.6 °F -27.5 °F -14.8 °F 71% 30.23 in 10.0 mi WNW 12.7 mph 21.9 mph N/A   Scattered Clouds
4:15 AM -7.6 °F -29.1 °F -14.8 °F 71% 30.23 in 7.0 mi WNW 15.0 mph - N/A   Scattered Clouds
4:55 AM -7.6 °F -31.7 °F -16.6 °F 65% 30.22 in 10.0 mi WNW 19.6 mph 25.3 mph N/A   Scattered Clouds
5:15 AM -9.4 °F -28.9 °F -18.4 °F 65% 30.23 in 10.0 mi WNW 11.5 mph - N/A   Clear
5:35 AM -9.4 °F -32.1 °F -18.4 °F 65% 30.23 in 10.0 mi WNW 16.1 mph 20.7 mph N/A   Clear
5:55 AM -9.4 °F -30.6 °F -18.4 °F 65% 30.24 in 10.0 mi WNW 13.8 mph 19.6 mph N/A   Clear
6:15 AM -9.4 °F -31.4 °F -20.2 °F 59% 30.25 in 10.0 mi WNW 15.0 mph 18.4 mph N/A   Clear
6:35 AM -11.2 °F -33.7 °F -20.2 °F 64% 30.25 in 10.0 mi WNW 15.0 mph 19.6 mph N/A   Clear
6:55 AM -11.2 °F -32.9 °F -20.2 °F 64% 30.25 in 10.0 mi WNW 13.8 mph 19.6 mph N/A   Clear
7:15 AM -13.0 °F -35.2 °F -22.0 °F 64% 30.25 in 10.0 mi WNW 13.8 mph 20.7 mph N/A   Clear
7:35 AM -13.0 °F -36.8 °F -22.0 °F 64% 30.25 in 10.0 mi WNW 16.1 mph 20.7 mph N/A   Clear
7:55 AM -13.0 °F -36.8 °F -22.0 °F 64% 30.26 in 10.0 mi WNW 16.1 mph - N/A   Clear
8:15 AM -13.0 °F -35.2 °F -22.0 °F 64% 30.26 in 10.0 mi WNW 13.8 mph 20.7 mph N/A   Clear
8:35 AM -13.0 °F -36.8 °F -22.0 °F 64% 30.28 in 10.0 mi WNW 16.1 mph - N/A   Clear
8:55 AM -11.2 °F -33.7 °F -22.0 °F 59% 30.28 in 10.0 mi WNW 15.0 mph - N/A   Clear
9:15 AM -11.2 °F -32.1 °F -20.2 °F 64% 30.28 in 10.0 mi WNW 12.7 mph 17.3 mph N/A   Clear
9:35 AM -9.4 °F -29.8 °F -20.2 °F 59% 30.28 in 10.0 mi NW 12.7 mph 19.6 mph N/A   Clear
9:55 AM -9.4 °F -32.1 °F -18.4 °F 65% 30.29 in 10.0 mi NW 16.1 mph - N/A   Clear
10:15 AM -9.4 °F -32.8 °F -20.2 °F 59% 30.29 in 10.0 mi WNW 17.3 mph 23.0 mph N/A   Clear
10:35 AM -9.4 °F -34.1 °F -20.2 °F 59% 30.29 in 10.0 mi WNW 19.6 mph 24.2 mph N/A   Clear
10:55 AM -9.4 °F -30.6 °F -18.4 °F 65% 30.29 in 10.0 mi WNW 13.8 mph - N/A   Clear
11:15 AM -7.6 °F -30.5 °F -18.4 °F 59% 30.28 in 10.0 mi NW 17.3 mph 21.9 mph N/A   Clear
11:35 AM -7.6 °F -28.3 °F -18.4 °F 59% 30.27 in 10.0 mi NW 13.8 mph - N/A   Scattered Clouds
11:55 AM -7.6 °F -27.5 °F -18.4 °F 59% 30.26 in 10.0 mi WNW 12.7 mph - N/A   Clear
12:15 PM -7.6 °F -29.1 °F -18.4 °F 59% 30.25 in 10.0 mi WNW 15.0 mph 19.6 mph N/A   Clear
12:35 PM -5.8 °F -26.8 °F -18.4 °F 55% 30.25 in 10.0 mi West 15.0 mph 18.4 mph N/A   Clear
12:55 PM -5.8 °F -27.5 °F -18.4 °F 55% 30.24 in 10.0 mi WNW 16.1 mph 21.9 mph N/A   Scattered Clouds
1:15 PM -5.8 °F -27.5 °F -16.6 °F 60% 30.23 in 10.0 mi West 16.1 mph - N/A   Scattered Clouds
1:35 PM -5.8 °F -23.4 °F -18.4 °F 55% 30.23 in 10.0 mi NW 10.4 mph - N/A   Scattered Clouds
1:55 PM -5.8 °F -27.5 °F -18.4 °F 55% 30.23 in 10.0 mi West 16.1 mph 19.6 mph N/A   Scattered Clouds
2:15 PM -5.8 °F -24.4 °F -16.6 °F 60% 30.23 in 10.0 mi West 11.5 mph - N/A   Scattered Clouds
2:35 PM -5.8 °F -27.5 °F -16.6 °F 60% 30.23 in 10.0 mi WNW 16.1 mph - N/A   Scattered Clouds
2:55 PM -5.8 °F -26.8 °F -16.6 °F 60% 30.23 in 10.0 mi WNW 15.0 mph - N/A   Scattered Clouds
3:15 PM -5.8 °F -24.4 °F -14.8 °F 65% 30.23 in 5.0 mi West 11.5 mph - N/A   Haze
3:35 PM -5.8 °F -22.4 °F -14.8 °F 65% 30.23 in 3.0 mi West 9.2 mph - N/A   Haze
3:55 PM -5.8 °F -22.4 °F -13.0 °F 71% 30.23 in 4.0 mi West 9.2 mph - N/A   Haze
4:15 PM -5.8 °F -23.4 °F -14.8 °F 65% 30.23 in 5.0 mi West 10.4 mph - N/A   Haze
4:35 PM -5.8 °F -26.0 °F -14.8 °F 65% 30.23 in 5.0 mi West 13.8 mph - N/A   Haze
4:55 PM -5.8 °F -24.4 °F -16.6 °F 60% 30.23 in 10.0 mi West 11.5 mph - N/A   Mostly Cloudy
5:15 PM -7.6 °F -25.7 °F -16.6 °F 65% 30.23 in 10.0 mi West 10.4 mph - N/A   Scattered Clouds
5:35 PM -7.6 °F -24.6 °F -14.8 °F 71% 30.23 in 10.0 mi West 9.2 mph - N/A   Clear
5:55 PM -7.6 °F -25.7 °F -14.8 °F 71% 30.24 in 10.0 mi West 10.4 mph - N/A   Clear
6:15 PM -7.6 °F -24.6 °F -14.8 °F 71% 30.24 in 10.0 mi West 9.2 mph - N/A   Clear
6:55 PM -7.6 °F -24.6 °F -16.6 °F 65% 30.25 in 10.0 mi West 9.2 mph - N/A   Clear
7:15 PM -7.6 °F -23.4 °F -16.6 °F 65% 30.26 in 10.0 mi West 8.1 mph - N/A   Clear
7:35 PM -7.6 °F -23.4 °F -16.6 °F 65% 30.26 in 10.0 mi West 8.1 mph - N/A   Clear
7:55 PM -7.6 °F -23.4 °F -14.8 °F 71% 30.25 in 10.0 mi West 8.1 mph - N/A   Clear
8:15 PM -7.6 °F -24.6 °F -14.8 °F 71% 30.25 in 10.0 mi West 9.2 mph - N/A   Clear
8:35 PM -7.6 °F -20.6 °F -14.8 °F 71% 30.25 in 10.0 mi West 5.8 mph - N/A   Clear
8:55 PM -7.6 °F -22.1 °F -14.8 °F 71% 30.25 in 10.0 mi West 6.9 mph - N/A   Clear
9:15 PM -7.6 °F -23.4 °F -14.8 °F 71% 30.26 in 10.0 mi West 8.1 mph - N/A   Clear
9:35 PM -7.6 °F -23.4 °F -14.8 °F 71% 30.26 in 10.0 mi West 8.1 mph - N/A   Clear
9:55 PM -7.6 °F -23.4 °F -16.6 °F 65% 30.26 in 10.0 mi West 8.1 mph - N/A   Clear
10:15 PM -9.4 °F -24.3 °F -16.6 °F 71% 30.26 in 10.0 mi West 6.9 mph - N/A   Clear
10:35 PM -9.4 °F -22.7 °F -16.6 °F 71% 30.26 in 10.0 mi WNW 5.8 mph - N/A   Clear
10:55 PM -9.4 °F -20.9 °F -16.6 °F 71% 30.26 in 10.0 mi West 4.6 mph - N/A   Clear
11:15 PM -9.4 °F -22.7 °F -16.6 °F 71% 30.26 in 10.0 mi West 5.8 mph - N/A   Clear
11:35 PM -9.4 °F -22.7 °F -16.6 °F 71% 30.26 in 10.0 mi West 5.8 mph - N/A   Clear
11:55 PM -9.4 °F -22.7 °F -16.6 °F 71% 30.25 in 10.0 mi West 5.8 mph - N/A   Clear